Wind_Speed
16 16 16 16 15 16 16 16 16 16 16 16 16 15 15 15 16 16 15 15 15 15 14 14 14 13 13 13 12 12 13 13 13 13 13 13 13 13 14 14 14 15 16
17 17 16 16 16 16 16 17 17 17 17 16 15 14 15 15 15 15 15 15 14 13 13 13 13 12 12 12 12 13 13 13 13 13 13 13 13 14 14 15 15 16 17
16 16 16 17 16 16 16 16 16 17 16 16 14 14 14 14 14 14 14 13 13 13 13 13 13 13 13 13 13 14 14 14 14 14 13 14 14 15 15 16 16 17 19
17 17 17 17 17 16 16 16 16 16 16 15 15 14 14 15 15 14 14 13 12 12 12 13 13 13 13 13 13 13 14 14 14 14 15 15 16 16 17 17 18 19 19
17 17 16 16 17 16 16 16 16 16 16 15 15 15 16 16 15 14 14 13 13 13 13 13 13 13 13 13 13 14 14 14 15 15 16 16 17 17 18 18 19 20 20
16 16 16 16 16 16 16 15 15 16 16 15 15 15 15 15 15 15 15 14 13 13 13 13 13 14 14 14 15 15 16 16 16 16 17 17 17 18 18 19 20 21 21
15 16 16 16 15 15 15 15 15 15 15 15 16 16 15 15 15 15 15 14 14 14 14 14 14 14 15 15 16 16 16 16 17 17 18 18 18 19 19 20 21 22 22
15 15 15 15 15 15 15 15 15 15 15 16 16 16 16 16 17 16 16 15 15 14 14 15 15 16 17 17 17 17 17 17 18 19 20 20 21 21 21 21 21 21 22
14 14 15 15 15 15 15 15 15 15 16 16 16 16 17 17 17 17 16 16 16 16 16 17 17 17 18 18 18 18 19 19 20 20 20 21 22 21 21 21 22 23 24
14 14 14 15 15 15 15 15 16 16 16 16 16 17 17 17 17 17 17 18 18 18 18 19 18 19 19 18 19 19 20 21 21 21 21 21 22 21 22 23 24 25 26
14 15 15 15 14 14 15 15 16 16 16 16 17 17 18 18 18 18 18 19 18 18 19 19 19 19 19 19 19 19 20 21 21 21 22 22 22 22 23 24 26 27 27
15 15 15 14 14 14 14 14 15 16 15 16 16 17 17 18 19 19 18 18 19 19 19 19 19 19 19 19 19 20 21 21 22 22 23 23 23 24 25 26 27 28 28
16 16 15 14 14 14 15 15 15 16 16 16 17 17 18 18 19 19 19 19 19 19 20 20 19 19 18 19 20 21 21 22 23 24 24 24 25 25 26 27 28 28 29
16 16 16 15 15 16 16 16 16 16 16 17 17 17 18 19 19 19 19 19 19 19 19 19 19 19 19 20 21 21 22 23 24 25 25 26 27 27 27 27 28 29 30
17 17 17 17 17 17 17 17 17 17 17 18 18 18 18 18 18 18 18 18 18 19 19 19 19 19 20 21 22 23 23 24 25 26 27 27 27 27 27 28 29 30 31
17 17 18 18 18 18 18 18 18 18 18 18 18 18 18 18 18 18 18 18 19 19 19 19 20 21 22 23 23 24 25 26 26 27 27 28 27 28 29 30 31 32 33
18 18 18 18 18 18 19 19 19 19 19 18 18 18 18 18 18 18 19 19 19 19 20 20 21 22 23 24 24 25 26 27 27 28 28 29 29 30 31 32 33 34 34
19 18 18 19 19 19 20 20 20 20 20 19 19 19 19 20 20 20 20 20 20 21 22 23 23 24 24 24 25 26 27 28 29 29 30 30 30 31 32 33 33 35 35
20 20 20 20 20 21 21 21 21 21 21 20 20 21 21 21 21 21 21 21 21 22 23 24 24 25 26 26 27 27 28 28 29 30 31 31 32 32 33 34 34 35 37
21 21 21 21 21 21 20 21 21 21 22 22 22 22 23 23 22 22 22 22 23 23 24 24 25 26 27 27 28 28 28 29 30 30 31 32 32 33 33 34 35 36 37
23 23 23 23 23 22 22 22 22 23 23 24 24 24 24 24 24 24 23 23 23 24 25 25 26 26 27 27 28 29 29 30 31 31 31 32 33 34 35 35 35 36 37
25 25 25 25 25 26 25 25 24 24 24 25 25 25 25 25 25 25 25 25 25 25 26 26 27 28 28 28 29 29 29 30 31 31 32 33 33 34 34 35 36 37 38
26 26 26 26 26 27 26 26 25 24 24 25 25 25 25 25 25 25 25 25 26 27 28 28 28 28 29 29 29 29 30 30 30 31 32 32 33 34 34 35 37 38 39
26 26 26 26 26 26 26 25 25 25 25 25 25 25 25 25 25 26 26 27 27 28 29 28 28 28 28 29 29 30 30 31 31 31 32 33 34 35 36 36 38 38 39
27 26 26 27 27 27 27 26 25 25 25 25 25 26 26 25 25 26 27 27 27 28 28 28 28 28 29 30 30 30 30 31 31 32 33 34 34 35 36 36 37 38 39
27 27 27 27 27 27 27 26 26 26 26 26 26 26 27 26 26 27 27 27 28 28 27 27 28 28 29 29 29 30 30 31 31 32 33 34 35 36 36 37 37 38 39
Wind_Direction
256 258 258 256 257 258 258 258 258 259 261 262 264 269 271 273 272 272 273 275 274 275 275 278 281 281 282 285 286 289 290 291 291 293 295 294 293 292 291 294 297 299 300
257 259 259 257 259 261 260 260 259 259 261 261 265 268 270 272 273 274 275 275 271 274 277 276 277 280 283 286 287 291 293 293 290 292 296 295 294 292 292 293 297 300 302
255 259 260 258 260 261 261 262 260 256 257 258 261 266 268 271 274 276 275 273 271 270 272 276 276 279 280 283 285 288 291 294 295 294 297 295 293 290 290 293 297 300 302
255 258 259 258 261 262 261 262 260 256 255 258 261 263 264 268 271 272 270 268 271 274 276 277 275 278 284 286 287 288 291 293 296 298 297 298 296 295 295 298 299 301 303
256 258 259 261 263 262 262 264 262 259 258 261 262 263 264 266 267 267 267 265 270 274 278 279 277 278 284 288 289 290 293 294 294 296 298 298 297 297 297 299 301 302 303
256 258 260 262 263 261 264 264 263 263 258 258 260 264 266 263 265 265 265 267 270 274 277 277 277 279 280 285 291 292 292 292 293 295 298 299 299 299 299 301 303 302 304
257 259 260 263 264 261 263 267 267 266 260 258 259 260 263 266 268 269 267 266 270 273 276 278 281 281 283 284 287 290 290 292 294 294 298 299 299 299 299 300 301 301 302
258 258 260 261 264 263 264 267 267 266 264 260 257 258 261 265 266 267 266 267 270 272 274 277 282 284 284 285 285 287 288 291 294 296 298 297 298 299 300 300 301 301 302
259 259 261 261 261 262 263 265 268 267 265 260 257 259 263 265 264 264 266 269 271 273 275 278 282 284 286 286 283 284 288 291 294 296 297 297 299 300 300 302 303 302 303
259 260 263 264 263 263 264 266 267 267 267 261 260 262 265 265 265 264 268 270 270 270 274 278 281 283 286 286 283 285 288 291 293 295 298 299 300 299 299 300 301 302 302
260 261 264 265 267 266 268 268 267 269 267 264 264 265 266 266 266 266 268 267 268 269 273 278 281 283 284 285 285 287 290 292 293 295 297 298 299 298 298 299 301 302 304
262 263 265 267 267 268 269 270 269 271 268 264 267 268 268 267 267 268 269 268 269 270 274 277 280 282 282 283 285 287 290 292 294 297 298 299 299 300 300 300 301 303 304
262 263 265 265 267 268 270 271 271 271 269 269 269 268 269 270 271 270 269 269 271 273 276 278 279 280 281 284 287 288 290 292 294 296 297 299 300 301 301 301 302 304 305
262 263 263 265 266 268 269 270 272 271 273 272 269 270 272 273 271 270 268 269 271 273 277 279 279 282 283 284 287 289 291 292 294 295 296 298 300 301 302 302 304 306 307
262 263 263 265 266 268 270 271 273 272 275 272 270 270 271 272 270 268 267 267 271 276 278 279 282 284 286 287 289 290 292 293 295 296 297 298 299 300 302 303 305 306 307
261 263 265 266 267 268 269 270 271 271 273 272 272 270 270 270 267 266 268 270 273 278 280 282 285 287 288 288 289 290 292 294 295 297 299 299 298 300 302 304 305 306 308
263 263 266 268 268 267 268 268 269 271 273 274 274 273 273 271 268 268 270 272 275 278 280 283 286 288 289 289 290 291 293 295 296 298 298 299 299 301 302 304 305 306 307
262 264 265 269 269 268 267 266 266 268 270 274 273 274 274 274 272 271 272 275 277 278 281 283 285 287 289 290 291 293 294 295 296 298 298 299 299 301 303 304 306 306 307
261 263 266 268 269 269 268 266 265 264 267 271 273 274 274 274 272 273 275 276 278 280 281 281 283 286 289 291 292 293 294 295 297 298 298 298 300 302 304 305 306 307 308
261 264 267 269 271 271 270 269 267 267 269 271 273 273 273 273 273 273 273 275 278 279 279 281 283 286 288 290 291 293 295 296 297 299 299 300 302 303 304 305 307 308 309
263 265 266 269 271 271 271 270 268 268 271 272 273 274 273 271 271 272 271 274 277 278 279 282 283 285 287 289 291 293 295 297 298 299 300 301 302 303 305 307 307 309 309
264 264 266 268 269 270 271 272 271 271 272 273 274 273 272 271 272 272 273 274 276 277 279 281 283 285 286 289 291 293 295 297 298 299 300 301 303 304 305 307 308 309 310
263 265 267 269 271 272 272 273 274 274 274 274 274 273 273 272 272 274 274 275 277 279 280 281 284 285 287 289 291 293 295 297 298 299 300 302 304 305 306 308 309 310 311
265 266 266 269 271 272 271 272 273 273 272 272 273 273 274 275 274 274 274 276 277 279 281 282 282 284 287 289 292 293 294 297 298 299 300 302 304 306 307 309 310 311 312
266 267 268 268 269 271 270 269 270 271 272 272 274 275 275 275 276 276 278 278 279 280 280 281 283 285 287 289 292 294 295 297 299 299 300 302 304 306 308 309 311 312 312
264 266 268 269 270 271 269 268 270 270 271 272 274 276 275 274 276 278 278 279 280 280 281 282 284 285 287 289 291 293 295 297 298 300 302 303 304 307 309 310 311 312 312
Height
5831 5831 5832 5832 5833 5833 5834 5835 5835 5836 5836 5836 5837 5836 5836 5836 5837 5836 5836 5836 5836 5836 5835 5835 5834 5834 5833 5832 5832 5831 5830 5829 5828 5826 5825 5823 5822 5822 5821 5821 5821 5820 5819
5827 5827 5827 5828 5829 5829 5830 5830 5831 5831 5832 5832 5832 5832 5832 5833 5833 5832 5832 5832 5832 5832 5831 5831 5831 5830 5830 5829 5828 5828 5827 5826 5825 5823 5822 5821 5820 5819 5818 5818 5817 5816 5815
5822 5823 5823 5824 5824 5825 5825 5826 5826 5827 5827 5828 5828 5829 5829 5829 5829 5828 5828 5828 5828 5828 5828 5827 5827 5827 5826 5826 5825 5824 5823 5822 5821 5820 5819 5818 5817 5816 5815 5814 5813 5812 5810
5818 5818 5819 5820 5820 5821 5821 5822 5822 5823 5823 5824 5824 5824 5825 5825 5824 5825 5824 5824 5824 5824 5824 5823 5823 5823 5823 5822 5821 5821 5820 5819 5818 5817 5816 5815 5813 5812 5811 5810 5808 5807 5805
5814 5814 5815 5815 5816 5816 5817 5817 5818 5819 5819 5820 5820 5820 5820 5821 5821 5821 5820 5820 5820 5820 5820 5820 5820 5819 5819 5818 5818 5817 5816 5815 5814 5813 5812 5811 5809 5808 5807 5805 5804 5802 5800
5809 5810 5811 5811 5812 5812 5813 5813 5814 5814 5815 5815 5815 5816 5816 5816 5816 5816 5816 5816 5816 5816 5816 5816 5816 5816 5815 5814 5814 5813 5812 5812 5811 5810 5808 5807 5805 5803 5802 5800 5798 5797 5795
5806 5806 5807 5807 5808 5808 5809 5809 5809 5810 5810 5810 5811 5811 5812 5812 5812 5812 5812 5812 5813 5813 5812 5812 5812 5812 5811 5810 5809 5809 5808 5807 5807 5806 5804 5802 5800 5798 5797 5795 5793 5791 5789
5802 5802 5803 5803 5804 5804 5805 5805 5805 5805 5806 5806 5806 5807 5807 5808 5808 5808 5808 5808 5808 5808 5808 5808 5808 5807 5806 5806 5805 5805 5804 5803 5802 5801 5799 5797 5795 5793 5791 5789 5787 5785 5783
5798 5798 5799 5799 5800 5800 5801 5801 5801 5801 5801 5802 5802 5802 5803 5803 5803 5803 5803 5804 5804 5804 5804 5804 5803 5802 5802 5801 5801 5800 5799 5798 5797 5795 5794 5792 5790 5787 5785 5783 5781 5779 5777
5794 5795 5795 5795 5796 5796 5797 5797 5797 5797 5797 5797 5797 5798 5798 5798 5798 5798 5798 5798 5799 5799 5799 5799 5798 5798 5797 5796 5795 5795 5794 5793 5792 5790 5788 5786 5784 5782 5780 5778 5775 5773 5770
5790 5791 5791 5791 5792 5792 5792 5792 5793 5793 5793 5793 5793 5793 5793 5793 5793 5793 5793 5793 5793 5794 5794 5793 5793 5792 5791 5791 5790 5790 5789 5787 5786 5784 5783 5781 5778 5776 5774 5771 5769 5766 5763
5786 5786 5787 5787 5787 5788 5788 5788 5788 5788 5788 5788 5788 5788 5788 5788 5788 5788 5788 5788 5788 5788 5788 5788 5787 5787 5786 5786 5785 5784 5783 5782 5780 5778 5776 5774 5772 5770 5767 5765 5762 5759 5756
5782 5782 5782 5783 5783 5784 5784 5784 5784 5784 5784 5784 5784 5783 5783 5783 5783 5783 5783 5783 5783 5783 5783 5782 5782 5782 5781 5781 5780 5779 5777 5776 5774 5772 5770 5768 5766 5763 5760 5758 5754 5751 5748
5777 5778 5778 5778 5779 5779 5779 5779 5779 5779 5779 5779 5779 5779 5778 5778 5778 5777 5777 5778 5778 5777 5777 5777 5777 5777 5776 5775 5774 5773 5771 5770 5768 5766 5763 5761 5759 5756 5753 5750 5747 5744 5740
5772 5773 5773 5774 5774 5774 5774 5775 5775 5775 5774 5774 5774 5774 5773 5773 5772 5772 5772 5772 5772 5772 5772 5772 5772 5771 5770 5769 5768 5766 5765 5763 5761 5759 5757 5754 5751 5749 5746 5743 5739 5736 5732
5767 5768 5768 5769 5769 5769 5769 5769 5769 5769 5769 5769 5769 5768 5768 5768 5767 5767 5767 5767 5767 5767 5767 5766 5766 5765 5764 5763 5762 5760 5758 5756 5754 5752 5749 5747 5744 5741 5738 5735 5731 5728 5724
5762 5762 5763 5763 5763 5763 5763 5764 5764 5764 5763 5763 5763 5763 5763 5762 5762 5762 5762 5761 5762 5762 5761 5761 5760 5759 5758 5757 5755 5753 5751 5749 5747 5745 5742 5739 5736 5733 5730 5727 5723 5719 5715
5756 5757 5757 5757 5757 5757 5757 5757 5758 5758 5758 5757 5757 5757 5757 5757 5756 5756 5756 5756 5756 5756 5755 5754 5753 5752 5751 5749 5748 5746 5744 5742 5739 5737 5734 5731 5728 5725 5721 5718 5714 5710 5706
5750 5751 5751 5751 5751 5751 5751 5751 5751 5751 5752 5752 5751 5751 5751 5750 5750 5750 5750 5750 5750 5749 5748 5747 5746 5745 5744 5742 5740 5738 5736 5734 5732 5729 5726 5723 5720 5716 5713 5709 5705 5700 5696
5744 5744 5744 5744 5744 5744 5744 5744 5744 5744 5744 5745 5745 5745 5744 5744 5744 5744 5743 5743 5742 5742 5741 5740 5739 5737 5736 5734 5732 5730 5728 5726 5723 5721 5718 5715 5711 5707 5704 5699 5695 5691 5686
5737 5737 5738 5738 5738 5738 5737 5737 5737 5737 5737 5738 5738 5737 5737 5737 5737 5736 5736 5736 5735 5734 5733 5732 5731 5729 5728 5726 5724 5722 5720 5717 5715 5712 5709 5706 5702 5698 5694 5690 5686 5681 5676
5729 5729 5730 5730 5730 5730 5730 5730 5730 5730 5730 5730 5730 5729 5729 5729 5729 5728 5728 5728 5727 5726 5725 5724 5722 5721 5719 5717 5716 5713 5711 5709 5706 5703 5700 5697 5693 5689 5685 5681 5676 5672 5667
5721 5721 5722 5722 5722 5722 5722 5722 5722 5722 5722 5722 5721 5721 5721 5721 5720 5720 5720 5719 5718 5717 5716 5715 5714 5712 5710 5709 5707 5705 5703 5700 5697 5694 5691 5688 5684 5681 5676 5672 5667 5662 5657
5712 5712 5713 5713 5713 5713 5714 5714 5714 5714 5714 5714 5713 5713 5713 5712 5712 5712 5711 5710 5710 5709 5708 5706 5705 5703 5702 5700 5698 5696 5694 5691 5688 5686 5682 5679 5675 5671 5667 5663 5658 5653 5647
5703 5703 5704 5704 5704 5705 5705 5705 5705 5705 5705 5705 5705 5705 5704 5704 5704 5703 5702 5702 5701 5700 5699 5697 5696 5695 5693 5692 5690 5688 5685 5683 5680 5677 5673 5670 5666 5662 5658 5653 5648 5643 5638
5694 5694 5695 5695 5695 5695 5696 5696 5696 5697 5697 5697 5697 5696 5696 5696 5695 5694 5694 5693 5692 5691 5690 5689 5687 5686 5685 5683 5681 5679 5676 5674 5671 5668 5664 5661 5657 5653 5648 5644 5639 5633 5628